| time (UTC) | temp F | wind direction | speed MPH | gust MPH | rain 1hr in | rain 24hr in | rain mn in | humidity % | barometer mb |
| 20260507091405 | 44 | 232 | 0.0 | 0.0 | 0.00 | 0.00 | 0.00 | 87 | 1019.4 |
| 20260507085905 | 45 | 232 | 0.0 | 0.0 | 0.00 | 0.00 | 0.00 | 85 | 1019.4 |
| 20260507084404 | 46 | 232 | 0.0 | 0.0 | 0.00 | 0.00 | 0.00 | 85 | 1019.5 |
| 20260507081402 | 49 | 231 | 0.0 | 0.0 | 0.00 | 0.00 | 0.00 | 84 | 1019.6 |
| 20260507075901 | 50 | 222 | 0.0 | 0.0 | 0.00 | 0.00 | 0.00 | 85 | 1019.8 |
| 20260507074400 | 50 | 340 | 0.0 | 0.0 | 0.00 | 0.00 | 0.00 | 86 | 1019.8 |
| 20260507072859 | 49 | 16 | 0.0 | 0.0 | 0.00 | 0.00 | 0.00 | 86 | 1019.9 |
| 20260507071358 | 49 | 16 | 0.0 | 0.0 | 0.00 | 0.00 | 0.00 | 86 | 1020.0 |
| 20260507065857 | 48 | 16 | 0.0 | 0.0 | 0.00 | 0.00 | 0.00 | 86 | 1020.2 |
| 20260507064356 | 48 | 16 | 0.0 | 0.0 | 0.00 | 0.00 | 0.00 | 85 | 1020.2 |
| 20260507062855 | 48 | 16 | 0.0 | 0.0 | 0.00 | 0.00 | 0.00 | 84 | 1020.4 |
| 20260507061354 | 48 | 16 | 0.0 | 0.0 | 0.00 | 0.00 | 0.00 | 84 | 1020.2 |
| 20260507055853 | 49 | 16 | 0.0 | 0.0 | 0.00 | 0.00 | 0.00 | 83 | 1020.3 |
| 20260507052851 | 49 | 16 | 0.0 | 0.0 | 0.00 | 0.00 | 0.00 | 80 | 1020.4 |
| 20260507051350 | 49 | 16 | 0.0 | 0.0 | 0.00 | 0.00 | 0.00 | 81 | 1020.4 |
| 20260507044348 | 48 | 16 | 0.0 | 0.0 | 0.00 | 0.00 | 0.18 | 83 | 1020.2 |
| 20260507042847 | 48 | 16 | 0.0 | 0.0 | 0.00 | 0.00 | 0.18 | 83 | 1020.2 |
| 20260507041347 | 48 | 16 | 0.0 | 0.0 | 0.00 | 0.00 | 0.18 | 81 | 1020.0 |
| 20260507035845 | 49 | 16 | 0.0 | 0.0 | 0.00 | 0.00 | 0.18 | 82 | 1020.0 |
| 20260507034344 | 50 | 16 | 0.0 | 0.0 | 0.00 | 0.00 | 0.18 | 81 | 1020.0 |
| 20260507032843 | 50 | 16 | 0.0 | 0.0 | 0.00 | 0.00 | 0.18 | 80 | 1020.2 |
| 20260507031342 | 51 | 16 | 0.0 | 0.0 | 0.00 | 0.00 | 0.18 | 78 | 1020.1 |
| 20260507025841 | 51 | 16 | 0.0 | 0.0 | 0.00 | 0.00 | 0.18 | 78 | 1020.0 |
| 20260507024341 | 51 | 16 | 0.0 | 0.0 | 0.00 | 0.00 | 0.18 | 77 | 1019.9 |
| 20260507022840 | 52 | 16 | 0.0 | 0.0 | 0.00 | 0.00 | 0.18 | 75 | 1019.7 |
| 20260507015838 | 53 | 16 | 0.0 | 0.0 | 0.00 | 0.00 | 0.18 | 70 | 1019.6 |
| 20260507014337 | 53 | 16 | 0.0 | 0.0 | 0.00 | 0.00 | 0.18 | 66 | 1019.3 |
| 20260507012836 | 54 | 16 | 0.0 | 0.0 | 0.00 | 0.00 | 0.18 | 63 | 1019.1 |
| 20260507011335 | 55 | 16 | 0.0 | 0.0 | 0.00 | 0.00 | 0.18 | 62 | 1018.9 |
| 20260507005834 | 55 | 16 | 0.0 | 0.0 | 0.00 | 0.00 | 0.18 | 59 | 1018.8 |
| 20260507002832 | 56 | 40 | 0.0 | 1.0 | 0.00 | 0.00 | 0.18 | 57 | 1018.8 |
| 20260507001331 | 56 | 32 | 0.0 | 1.0 | 0.00 | 0.00 | 0.18 | 55 | 1018.8 |
| 20260506235830 | 57 | 85 | 0.0 | 1.0 | 0.00 | 0.00 | 0.18 | 55 | 1018.8 |
| 20260506234329 | 57 | 308 | 0.0 | 1.0 | 0.00 | 0.00 | 0.18 | 53 | 1018.9 |
| 20260506232828 | 58 | 6 | 1.0 | 1.0 | 0.00 | 0.00 | 0.18 | 53 | 1018.7 |
| 20260506231327 | 58 | 49 | 0.0 | 1.0 | 0.00 | 0.00 | 0.18 | 52 | 1018.6 |
| 20260506225827 | 58 | 30 | 0.0 | 1.0 | 0.00 | 0.00 | 0.18 | 51 | 1018.6 |
| 20260506224325 | 59 | 80 | 0.0 | 1.0 | 0.00 | 0.00 | 0.18 | 52 | 1018.6 |
| 20260506222824 | 58 | 30 | 0.0 | 1.0 | 0.00 | 0.00 | 0.18 | 50 | 1018.4 |
| 20260506221323 | 59 | 50 | 0.0 | 1.0 | 0.00 | 0.00 | 0.18 | 50 | 1018.4 |
| 20260506215822 | 59 | 33 | 0.0 | 3.0 | 0.00 | 0.00 | 0.18 | 50 | 1018.5 |
| 20260506214321 | 59 | 71 | 0.0 | 1.0 | 0.00 | 0.00 | 0.18 | 50 | 1018.5 |
| 20260506212820 | 60 | 95 | 2.0 | 4.0 | 0.00 | 0.00 | 0.18 | 47 | 1018.7 |
| 20260506211320 | 60 | 46 | 0.0 | 1.0 | 0.00 | 0.00 | 0.18 | 50 | 1019.0 |
| 20260506205818 | 60 | 11 | 0.0 | 3.0 | 0.00 | 0.00 | 0.18 | 48 | 1018.8 |
| 20260506204317 | 58 | 26 | 0.0 | 1.0 | 0.00 | 0.00 | 0.18 | 52 | 1019.2 |
| 20260506202816 | 59 | 39 | 0.0 | 4.0 | 0.00 | 0.00 | 0.18 | 52 | 1019.4 |
| 20260506195815 | 59 | 71 | 0.0 | 1.0 | 0.00 | 0.00 | 0.18 | 51 | 1019.9 |
| 20260506194314 | 58 | 68 | 0.0 | 3.0 | 0.00 | 0.00 | 0.18 | 50 | 1020.0 |
| 20260506192813 | 58 | 18 | 0.0 | 2.0 | 0.00 | 0.00 | 0.18 | 48 | 1020.2 |
| 20260506191312 | 59 | 58 | 0.0 | 1.0 | 0.00 | 0.00 | 0.18 | 50 | 1020.2 |
| 20260506185811 | 57 | 92 | 0.0 | 6.0 | 0.00 | 0.00 | 0.18 | 53 | 1020.2 |
| 20260506184310 | 57 | 136 | 0.0 | 2.0 | 0.00 | 0.00 | 0.18 | 56 | 1020.1 |
| 20260506182809 | 57 | 29 | 0.0 | 6.0 | 0.00 | 0.00 | 0.18 | 54 | 1020.2 |
| 20260506181308 | 57 | 65 | 6.0 | 6.0 | 0.00 | 0.00 | 0.18 | 58 | 1020.4 |
| 20260506175807 | 56 | 96 | 2.0 | 5.0 | 0.00 | 0.00 | 0.18 | 58 | 1020.8 |
| 20260506174306 | 54 | 87 | 0.0 | 6.0 | 0.00 | 0.00 | 0.18 | 63 | 1020.9 |
| 20260506171304 | 53 | 32 | 0.0 | 3.0 | 0.00 | 0.00 | 0.18 | 68 | 1021.1 |
| 20260506165803 | 52 | 26 | 0.0 | 1.0 | 0.00 | 0.00 | 0.18 | 71 | 1021.1 |
| 20260506162801 | 51 | 48 | 0.0 | 1.0 | 0.00 | 0.00 | 0.18 | 80 | 1021.0 |
| 20260506161300 | 50 | 39 | 0.0 | 2.0 | 0.00 | 0.00 | 0.18 | 80 | 1020.4 |
| 20260506155759 | 48 | 60 | 1.0 | 2.0 | 0.00 | 0.00 | 0.18 | 84 | 1020.8 |
| 20260506154258 | 48 | 41 | 0.0 | 1.0 | 0.00 | 0.00 | 0.18 | 84 | 1021.0 |
| 20260506152758 | 47 | 44 | 0.0 | 1.0 | 0.00 | 0.00 | 0.18 | 84 | 1021.1 |
| 20260506151256 | 47 | 46 | 0.0 | 1.0 | 0.00 | 0.00 | 0.18 | 88 | 1020.6 |
| 20260506145755 | 46 | 39 | 0.0 | 1.0 | 0.00 | 0.00 | 0.18 | 89 | 1020.7 |
| 20260506144255 | 46 | 40 | 0.0 | 1.0 | 0.00 | 0.00 | 0.18 | 91 | 1020.9 |
| 20260506142754 | 46 | 43 | 0.0 | 1.0 | 0.00 | 0.00 | 0.18 | 93 | 1020.4 |
| 20260506135752 | 46 | 44 | 0.0 | 0.0 | 0.00 | 0.00 | 0.18 | 95 | 1020.5 |
| 20260506134251 | 45 | 34 | 0.0 | 4.0 | 0.00 | 0.00 | 0.18 | 96 | 1020.3 |
| 20260506132750 | 45 | 39 | 0.0 | 0.0 | 0.00 | 0.00 | 0.17 | 96 | 1020.0 |
| 20260506131249 | 45 | 41 | 0.0 | 0.0 | 0.00 | 0.00 | 0.17 | 97 | 1020.1 |
| 20260506125748 | 44 | 40 | 0.0 | 0.0 | 0.00 | 0.00 | 0.17 | 96 | 1019.8 |
| 20260506124247 | 44 | 41 | 0.0 | 1.0 | 0.00 | 0.00 | 0.17 | 96 | 1019.4 |
| 20260506122746 | 44 | 40 | 0.0 | 0.0 | 0.00 | 0.00 | 0.17 | 97 | 1019.2 |
| 20260506121245 | 44 | 18 | 0.0 | 0.0 | 0.00 | 0.00 | 0.17 | 97 | 1019.2 |
| 20260506114243 | 43 | 32 | 0.0 | 0.0 | 0.00 | 0.00 | 0.17 | 96 | 1018.7 |
| 20260506112742 | 43 | 23 | 0.0 | 0.0 | 0.00 | 0.00 | 0.17 | 96 | 1018.1 |
| 20260506111241 | 43 | 308 | 0.0 | 0.0 | 0.00 | 0.00 | 0.17 | 96 | 1017.9 |
| 20260506105740 | 43 | 13 | 0.0 | 0.0 | 0.00 | 0.00 | 0.17 | 96 | 1017.7 |
| 20260506104239 | 43 | 46 | 0.0 | 0.0 | 0.00 | 0.00 | 0.17 | 96 | 1017.4 |
| 20260506102738 | 42 | 19 | 0.0 | 0.0 | 0.00 | 0.00 | 0.17 | 96 | 1017.6 |
| 20260506101237 | 42 | 27 | 0.0 | 0.0 | 0.00 | 0.00 | 0.17 | 96 | 1017.0 |
| 20260506094235 | 43 | 13 | 0.0 | 0.0 | 0.00 | 0.00 | 0.17 | 96 | 1017.2 |